Location: Banska Bystrica
(0.0000°N, 19.1500°E)
Time: 10:16:49
(UTC+02:00)

YAOGAN 1 - Pass Details

Date: 19 February 2019
Orbit: 619 x 621 km, 98.0° (Epoch: 23 October)

Event Time Altitude Azimuth Distance (km) Brightness Sun altitude
Rises 18:55:20 0° 183° (S) 2,895 6.2 -14.2°
Reaches altitude 10° 18:57:39 10° 192° (SSW) 1,987 5.5 -14.8°
Maximum altitude 19:01:36 36° 258° (WSW) 992 4.3 -15.8°
Drops below altitude 10° 19:05:33 10° 325° (NW) 1,978 5.4 -16.7°
Sets 19:07:52 0° 333° (NNW) 2,881 6.2 -17.3°
